Location: Sternwarte ZA, Rosenfeld-Brittheim
(48.2889°N, 8.6789°E)
Time: 07:59:09
(UTC+02:00)

ISS - Pass Details

Date: 14 March 2018
Orbit: 402 x 407 km, 51.6° (Epoch: 25 June)

Event Time Altitude Azimuth Distance (km) Brightness Sun altitude
Exits shadow 03:55:57 22° 64° (ENE) 954 -1.3 -27.3°
Drops below altitude 10° 03:57:23 10° 76° (ENE) 1,482 -0.1 -27.1°
Enters shadow 04:54:16 -67° 281° (WNW) 12,225 3.6 -18.4°
Maximum altitude 05:30:59 84° 20° (NNE) 419 -3.8 -12.4°
